Location: Unnamed
(47.6264°N, 122.3366°W)
Time: 12:41:02
(UTC-07:00)

UPPER FREE FLYER - Pass Details

Date: 14 August 2020
Orbit: 571 x 589 km, 97.7° (Epoch: 01 October)

Event Time Altitude Azimuth Distance (km) Brightness Sun altitude
Exits shadow 00:12:00 15° 266° (W) 1,602 ? -26.7°
Maximum altitude 00:12:17 15° 270° (W) 1,598 ? -26.7°
Drops below altitude 10° 00:14:38 10° 306° (NW) 1,896 ? -26.8°
Sets 00:17:40 0° 330° (NNW) 2,806 ? -26.9°
